| time (UTC) | temp C | wind direction | speed KPH | gust KPH | rain 1hr cm | rain 24hr cm | rain mn cm | humidity % | barometer mb |
| 20260509161519 | 14 | 122 | 0.0 | 3.2 | 0.00 | 0.20 | 0.20 | 83 | 1008.9 |
| 20260509160020 | 14 | 124 | 3.2 | 9.7 | 0.00 | 0.20 | 0.20 | 83 | 1008.9 |
| 20260509154517 | 14 | 78 | 1.6 | 6.4 | 0.00 | 0.20 | 0.20 | 83 | 1008.8 |
| 20260509153015 | 13 | 83 | 4.8 | 9.7 | 0.00 | 0.20 | 0.20 | 84 | 1008.7 |
| 20260509151513 | 13 | 34 | 3.2 | 8.0 | 0.03 | 0.20 | 0.20 | 86 | 1008.8 |
| 20260509150010 | 12 | 360 | 0.0 | 0.0 | 0.05 | 0.20 | 0.20 | 88 | 1009.0 |
| 20260509144511 | 12 | 355 | 0.0 | 0.0 | 0.10 | 0.20 | 0.20 | 88 | 1009.1 |
| 20260509143108 | 12 | 338 | 0.0 | 0.0 | 0.15 | 0.20 | 0.20 | 88 | 1009.1 |
| 20260509141519 | 12 | 355 | 0.0 | 4.8 | 0.15 | 0.18 | 0.18 | 87 | 1009.0 |
| 20260509140007 | 12 | 69 | 3.2 | 6.4 | 0.15 | 0.15 | 0.15 | 87 | 1009.1 |
| 20260509134504 | 12 | 79 | 0.0 | 8.0 | 0.08 | 0.08 | 0.08 | 86 | 1009.1 |
| 20260509133005 | 12 | 84 | 0.0 | 0.0 | 0.05 | 0.05 | 0.05 | 86 | 1009.1 |
| 20260509131507 | 12 | 102 | 0.0 | 0.0 | 0.03 | 0.03 | 0.03 | 85 | 1009.1 |
| 20260509130003 | 12 | 101 | 0.0 | 0.0 | 0.00 | 0.00 | 0.00 | 85 | 1009.1 |
| 20260509124501 | 12 | 107 | 0.0 | 0.0 | 0.00 | 0.00 | 0.00 | 84 | 1009.0 |
| 20260509123002 | 12 | 108 | 0.0 | 0.0 | 0.00 | 0.00 | 0.00 | 84 | 1009.0 |
| 20260509121604 | 12 | 109 | 0.0 | 0.0 | 0.00 | 0.00 | 0.00 | 83 | 1009.2 |
| 20260509120107 | 12 | 109 | 0.0 | 0.0 | 0.00 | 0.00 | 0.00 | 83 | 1009.4 |
| 20260509114603 | 11 | 109 | 0.0 | 0.0 | 0.00 | 0.00 | 0.00 | 85 | 1009.4 |
| 20260509113055 | 11 | 109 | 0.0 | 0.0 | 0.00 | 0.00 | 0.00 | 85 | 1009.2 |
| 20260509111554 | 11 | 109 | 0.0 | 0.0 | 0.00 | 0.00 | 0.00 | 86 | 1009.1 |
| 20260509110056 | 11 | 271 | 0.0 | 0.0 | 0.00 | 0.00 | 0.00 | 85 | 1008.8 |
| 20260509104553 | 11 | 271 | 0.0 | 0.0 | 0.00 | 0.00 | 0.00 | 85 | 1008.8 |
| 20260509103052 | 10 | 271 | 0.0 | 0.0 | 0.00 | 0.00 | 0.00 | 85 | 1008.6 |
| 20260509101553 | 10 | 236 | 0.0 | 0.0 | 0.00 | 0.00 | 0.00 | 85 | 1008.4 |
| 20260509100057 | 10 | 221 | 0.0 | 0.0 | 0.00 | 0.00 | 0.00 | 85 | 1008.0 |
| 20260509094553 | 10 | 221 | 0.0 | 0.0 | 0.00 | 0.00 | 0.00 | 85 | 1008.0 |
| 20260509093050 | 10 | 221 | 0.0 | 0.0 | 0.00 | 0.00 | 0.00 | 85 | 1008.1 |
| 20260509091549 | 10 | 221 | 0.0 | 0.0 | 0.00 | 0.00 | 0.00 | 85 | 1008.1 |
| 20260509090048 | 10 | 221 | 0.0 | 0.0 | 0.00 | 0.00 | 0.00 | 84 | 1008.1 |
| 20260509084553 | 10 | 221 | 0.0 | 0.0 | 0.00 | 0.00 | 0.00 | 83 | 1008.2 |
| 20260509083045 | 10 | 221 | 0.0 | 0.0 | 0.00 | 0.00 | 0.00 | 83 | 1008.2 |
| 20260509081548 | 10 | 221 | 0.0 | 0.0 | 0.00 | 0.00 | 0.00 | 83 | 1008.3 |
| 20260509080046 | 10 | 221 | 0.0 | 0.0 | 0.00 | 0.00 | 0.00 | 83 | 1008.4 |
| 20260509074545 | 10 | 228 | 0.0 | 0.0 | 0.00 | 0.00 | 0.00 | 84 | 1008.4 |
| 20260509073042 | 10 | 228 | 0.0 | 0.0 | 0.00 | 0.00 | 0.00 | 83 | 1008.3 |
| 20260509071547 | 10 | 228 | 0.0 | 0.0 | 0.00 | 0.00 | 0.00 | 83 | 1008.5 |
| 20260509070042 | 10 | 229 | 0.0 | 0.0 | 0.00 | 0.00 | 0.00 | 83 | 1008.6 |
| 20260509064540 | 10 | 229 | 0.0 | 0.0 | 0.00 | 0.00 | 0.00 | 82 | 1008.6 |
| 20260509063040 | 10 | 226 | 0.0 | 0.0 | 0.00 | 0.00 | 0.00 | 82 | 1008.4 |
| 20260509061546 | 11 | 226 | 0.0 | 0.0 | 0.00 | 0.00 | 0.00 | 81 | 1008.6 |
| 20260509060037 | 11 | 227 | 0.0 | 0.0 | 0.00 | 0.00 | 0.00 | 82 | 1008.8 |
| 20260509054532 | 11 | 227 | 0.0 | 0.0 | 0.00 | 0.00 | 0.00 | 81 | 1008.9 |
| 20260509053035 | 11 | 227 | 0.0 | 0.0 | 0.00 | 0.00 | 0.00 | 82 | 1008.8 |
| 20260509051534 | 11 | 126 | 0.0 | 0.0 | 0.00 | 0.00 | 0.00 | 81 | 1008.8 |
| 20260509050046 | 11 | 126 | 0.0 | 0.0 | 0.00 | 0.00 | 0.00 | 82 | 1008.9 |
| 20260509044541 | 11 | 126 | 0.0 | 0.0 | 0.00 | 0.00 | 0.00 | 81 | 1008.8 |
| 20260509043028 | 11 | 126 | 0.0 | 0.0 | 0.00 | 0.00 | 0.00 | 82 | 1009.1 |
| 20260509041526 | 11 | 126 | 0.0 | 0.0 | 0.00 | 0.00 | 0.00 | 80 | 1009.3 |
| 20260509040024 | 11 | 126 | 0.0 | 0.0 | 0.00 | 0.00 | 0.00 | 79 | 1009.4 |
| 20260509034524 | 11 | 126 | 0.0 | 0.0 | 0.00 | 0.00 | 0.00 | 79 | 1009.4 |
| 20260509033023 | 11 | 126 | 0.0 | 0.0 | 0.00 | 0.00 | 0.00 | 78 | 1009.3 |
| 20260509031522 | 12 | 126 | 0.0 | 0.0 | 0.00 | 0.00 | 0.00 | 75 | 1009.5 |
| 20260509030023 | 12 | 126 | 0.0 | 0.0 | 0.00 | 0.00 | 0.00 | 74 | 1009.6 |
| 20260509024521 | 12 | 123 | 0.0 | 0.0 | 0.00 | 0.00 | 0.00 | 75 | 1009.7 |
| 20260509023022 | 12 | 130 | 0.0 | 0.0 | 0.00 | 0.00 | 0.00 | 77 | 1009.9 |
| 20260509021521 | 12 | 130 | 0.0 | 0.0 | 0.00 | 0.00 | 0.00 | 78 | 1009.9 |
| 20260509020020 | 12 | 130 | 0.0 | 0.0 | 0.00 | 0.00 | 0.00 | 78 | 1009.7 |
| 20260509014524 | 12 | 130 | 0.0 | 0.0 | 0.00 | 0.00 | 0.00 | 77 | 1009.9 |
| 20260509013034 | 12 | 130 | 0.0 | 0.0 | 0.00 | 0.00 | 0.00 | 76 | 1009.7 |
| 20260509011519 | 12 | 130 | 0.0 | 0.0 | 0.00 | 0.00 | 0.00 | 75 | 1009.7 |
| 20260509010018 | 12 | 132 | 0.0 | 11.3 | 0.00 | 0.00 | 0.00 | 74 | 1009.4 |
| 20260509004517 | 12 | 296 | 0.0 | 0.0 | 0.00 | 0.00 | 0.00 | 75 | 1009.4 |
| 20260509003019 | 12 | 296 | 0.0 | 0.0 | 0.00 | 0.00 | 0.00 | 73 | 1009.4 |
| 20260509001517 | 13 | 296 | 0.0 | 1.6 | 0.00 | 0.00 | 0.00 | 72 | 1009.2 |
| 20260509000016 | 14 | 296 | 0.0 | 0.0 | 0.00 | 0.00 | 0.00 | 65 | 1009.2 |
| 20260508234517 | 15 | 296 | 0.0 | 3.2 | 0.00 | 0.00 | 0.00 | 64 | 1009.1 |
| 20260508233115 | 16 | 296 | 0.0 | 3.2 | 0.00 | 0.00 | 0.00 | 59 | 1008.9 |
| 20260508231514 | 17 | 296 | 1.6 | 8.0 | 0.00 | 0.00 | 0.00 | 55 | 1009.0 |
| 20260508230034 | 17 | 311 | 3.2 | 11.3 | 0.00 | 0.00 | 0.00 | 50 | 1008.9 |
| 20260508224538 | 17 | 295 | 3.2 | 9.7 | 0.00 | 0.00 | 0.00 | 49 | 1009.0 |
| 20260508223024 | 17 | 252 | 4.8 | 8.0 | 0.00 | 0.00 | 0.00 | 48 | 1009.1 |
| 20260508221512 | 18 | 240 | 4.8 | 14.5 | 0.00 | 0.00 | 0.00 | 49 | 1009.1 |
| 20260508220012 | 18 | 252 | 4.8 | 12.9 | 0.00 | 0.00 | 0.00 | 46 | 1009.1 |
| 20260508214511 | 18 | 227 | 6.4 | 19.3 | 0.00 | 0.00 | 0.00 | 45 | 1009.1 |
| 20260508213010 | 18 | 236 | 6.4 | 19.3 | 0.00 | 0.00 | 0.00 | 44 | 1009.1 |
| 20260508211512 | 18 | 186 | 3.2 | 19.3 | 0.00 | 0.00 | 0.00 | 45 | 1009.0 |
| 20260508210010 | 18 | 51 | 4.8 | 17.7 | 0.00 | 0.00 | 0.00 | 46 | 1009.1 |
| 20260508204516 | 18 | 186 | 3.2 | 16.1 | 0.00 | 0.00 | 0.00 | 45 | 1009.0 |
| 20260508203007 | 18 | 241 | 4.8 | 19.3 | 0.00 | 0.00 | 0.00 | 43 | 1009.2 |
| 20260508201506 | 18 | 255 | 3.2 | 17.7 | 0.00 | 0.00 | 0.00 | 47 | 1009.3 |
| 20260508200005 | 19 | 184 | 6.4 | 22.5 | 0.00 | 0.00 | 0.00 | 42 | 1009.2 |
| 20260508194504 | 20 | 204 | 6.4 | 25.7 | 0.00 | 0.00 | 0.00 | 39 | 1009.4 |
| 20260508193003 | 18 | 116 | 9.7 | 24.1 | 0.00 | 0.00 | 0.00 | 46 | 1009.4 |
| 20260508191504 | 18 | 184 | 3.2 | 19.3 | 0.00 | 0.00 | 0.00 | 42 | 1009.7 |
| 20260508190002 | 19 | 198 | 4.8 | 25.7 | 0.00 | 0.00 | 0.00 | 41 | 1009.8 |
| 20260508184635 | 21 | 229 | 9.7 | 27.4 | 0.00 | 0.00 | 0.00 | 40 | 1009.8 |
| 20260508183113 | 20 | 207 | 12.9 | 24.1 | 0.00 | 0.00 | 0.00 | 44 | 1009.8 |
| 20260508181600 | 19 | 210 | 6.4 | 25.7 | 0.00 | 0.00 | 0.00 | 38 | 1010.0 |
| 20260508174615 | 19 | 146 | 12.9 | 24.1 | 0.00 | 0.00 | 0.00 | 45 | 1010.4 |
| 20260508173104 | 18 | 242 | 6.4 | 19.3 | 0.00 | 0.00 | 0.00 | 44 | 1010.6 |
| 20260508171615 | 18 | 242 | 6.4 | 19.3 | 0.00 | 0.00 | 0.00 | 52 | 1010.8 |
| 20260508170048 | 18 | 195 | 11.3 | 27.4 | 0.00 | 0.00 | 0.00 | 43 | 1011.1 |
| 20260508164546 | 17 | 239 | 9.7 | 20.9 | 0.00 | 0.00 | 0.00 | 45 | 1011.3 |
| 20260508163148 | 17 | 157 | 9.7 | 19.3 | 0.00 | 0.00 | 0.00 | 48 | 1011.5 |